Tracking 25707 objects as of 29-Jun-2022
HD Live streaming from Space Station
objects crossing your sky now

IUS DEB

Track IUS DEB now!
10-day predictions


NORAD ID: 43364
Int'l Code: 1999-040M
Perigee: 868.7 km
Apogee: 9,446.7 km
Inclination: 28.1 °
Period: 205.3 minutes
Semi major axis: 11528 km
RCS: Unknown
Launch date: July 23, 1999
Source: United States (US)
Launch site: AIR FORCE EASTERN TEST RANGE (AFETR)

Note: This is SATELLITE DEBRIS
aabbcc
Your satellite tracking list
Your tracking list is empty




NASA's NSSDC Master Catalog

Two Line Element Set (TLE):
1 43364U 99040M   22152.29748606 -.00000178  00000-0 -18736-2 0  9991
2 43364  28.0898  34.8738 3720272 228.1044  93.6345  7.01345154 35260
Source of the keplerian elements: AFSPC